Starlink 6036

operational
NORAD ID: 56800 Int'l Des: 2023-078 Owner: SPXS Country: US Constellation: starlink
LEOCIRCULAR

关于 Starlink 6036

正在加载描述...

实时位置

正在加载3D地球...

即将过境

高度历史

Altitude vs Time

uPlot chart will show altitude changes over time

两行轨道根数

1 56800U 23078AK 26061.57749206 .00005533 00000-0 47146-3 0 9995
2 56800 70.0019 2.4408 0002503 281.4881 78.5997 14.98304549151614
Epoch: Mar 2, 2026 • Age: 30 hours

当前状态

高度 586.9 km
速度 7.57 km/s
星下点 -43.68°S, 94.45°E
发射日期 May 31, 2023
运行时间 2.7 years
类型 internet

技术详情

分类 Payload
质量 305.00 kg
干质量 290.00 kg
总质量 305.00 kg
长度 0.20 m
直径 2.80 m
跨度 9.00 m
形状 Box + pan
制造商 SPXS
平台类型 Starlink
阶段状态 In Orbit
所有者/国家 SPXS/US

大型星座

Loading constellations...